{"data":{"norad_id":50197,"intl_designator":"2021-125AT","name":"STARLINK-3267","alt_names":[],"object_type":"PAYLOAD","status":"ACTIVE","operator":null,"country":"US","launch_date":"2021-12-18","launch_site_code":"AFWTR","launch_vehicle":null,"mission":null,"orbit_class":"UNKNOWN","rcs_meters":null,"size_class":null,"mass_kg":null,"dimensions":null,"purposes":["comms"],"wikipedia_slug":null,"has_3d_model":false,"image_url":null,"decayed_at":null,"tle_current":{"epoch":"2026-05-24T17:40:08.173344Z","epoch_age_seconds":91046,"freshness":"FRESH","line1":"1 50197U 21125AT  26144.73620571  .00000394  00000+0  42862-4 0  9992","line2":"2 50197  53.2145 257.7339 0000976  86.9397 273.1707 15.08837411248261","mean_motion":15.08837411,"eccentricity":9.76e-5,"inclination_deg":53.2145,"raan_deg":257.7339,"arg_perigee_deg":86.9397,"mean_anomaly_deg":273.1707,"bstar":4.2862e-5,"rev_number":24826,"period_min":95.437718438173,"perigee_km":539.07611661435,"apogee_km":540.426488411,"semimajor_km":6917.8883025127,"source":"CELESTRAK","updated_at":"2026-05-25T13:38:16.871937Z"}}}